Time,TemperatureF,DewpointF,PressureIn,WindDirection,WindDirectionDegrees,WindSpeedMPH,WindSpeedGustMPH,Humidity,HourlyPrecipIn,Conditions,Clouds,dailyrainin,SolarRadiationWatts/m^2,SoftwareType,DateUTC
2013-03-18 00:00:00,68.7,56.9,29.44,WNW,296,0.0,1.0,66,0.00,,---,0.00,0.00,VWS V14.00,2013-03-18 05:00:00,
2013-03-18 00:05:00,68.5,56.7,29.44,WNW,296,2.0,4.0,66,0.00,,---,0.00,0.00,VWS V14.00,2013-03-18 05:05:00,
2013-03-18 00:10:00,68.5,56.7,29.44,WNW,296,5.0,7.0,66,0.00,,---,0.00,0.00,VWS V14.00,2013-03-18 05:10:00,
2013-03-18 00:15:00,68.5,56.7,29.44,WNW,296,1.0,6.0,66,0.00,,---,0.00,0.00,VWS V14.00,2013-03-18 05:15:00,
2013-03-18 00:20:00,68.3,56.9,29.45,WNW,296,0.0,6.0,67,0.00,,---,0.00,0.00,VWS V14.00,2013-03-18 05:20:00,
2013-03-18 00:25:00,68.2,57.2,29.45,WNW,296,0.0,4.0,68,0.00,,---,0.00,0.00,VWS V14.00,2013-03-18 05:25:00,
2013-03-18 00:30:00,68.1,57.2,29.45,WNW,296,0.0,5.0,68,0.00,,---,0.00,0.00,VWS V14.00,2013-03-18 05:30:00,
2013-03-18 00:35:00,68.1,58.3,29.45,WNW,291,2.0,9.0,71,0.00,,---,0.00,0.00,VWS V14.00,2013-03-18 05:35:00,
2013-03-18 00:40:00,68.1,58.0,29.45,WNW,291,2.0,9.0,70,0.00,,---,0.00,0.00,VWS V14.00,2013-03-18 05:40:00,
2013-03-18 00:45:00,67.8,58.1,29.45,WNW,291,0.0,4.0,71,0.00,,---,0.00,0.00,VWS V14.00,2013-03-18 05:45:00,
2013-03-18 00:50:00,66.7,57.0,29.46,WNW,291,2.0,4.0,71,0.00,,---,0.00,0.00,VWS V14.00,2013-03-18 05:50:00,
2013-03-18 00:55:00,66.2,57.3,29.46,WNW,291,0.0,2.0,73,0.00,,---,0.00,0.00,VWS V14.00,2013-03-18 05:55:00,
2013-03-18 01:00:00,66.0,57.5,29.46,WNW,291,0.0,4.0,74,0.00,,---,0.00,0.00,VWS V14.00,2013-03-18 06:00:00,
2013-03-18 01:05:00,66.3,58.2,29.46,WNW,291,0.0,1.0,75,0.00,,---,0.00,0.00,VWS V14.00,2013-03-18 06:05:00,
2013-03-18 01:10:00,66.6,58.4,29.46,WNW,291,4.0,6.0,75,0.00,,---,0.00,0.00,VWS V14.00,2013-03-18 06:10:00,
2013-03-18 01:15:00,66.8,59.0,29.46,WNW,291,0.0,4.0,76,0.00,,---,0.00,0.00,VWS V14.00,2013-03-18 06:15:00,
2013-03-18 01:20:00,67.0,59.2,29.46,WNW,291,0.0,4.0,76,0.00,,---,0.00,0.00,VWS V14.00,2013-03-18 06:20:00,
2013-03-18 01:25:00,67.0,59.6,29.47,WNW,291,0.0,0.0,77,0.00,,---,0.00,0.00,VWS V14.00,2013-03-18 06:25:00,
2013-03-18 01:30:00,67.0,60.3,29.46,WNW,291,0.0,6.0,79,0.00,,---,0.00,0.00,VWS V14.00,2013-03-18 06:30:00,
2013-03-18 01:35:00,66.8,60.4,29.46,WNW,291,2.0,5.0,80,0.00,,---,0.00,0.00,VWS V14.00,2013-03-18 06:35:00,
2013-03-18 01:40:00,66.8,60.4,29.47,WNW,291,0.0,5.0,80,0.00,,---,0.00,0.00,VWS V14.00,2013-03-18 06:40:00,
2013-03-18 01:45:00,66.7,60.7,29.46,WNW,291,4.0,4.0,81,0.00,,---,0.00,0.00,VWS V14.00,2013-03-18 06:45:00,
2013-03-18 01:50:00,66.7,61.0,29.46,WNW,291,0.0,4.0,82,0.00,,---,0.00,0.00,VWS V14.00,2013-03-18 06:50:00,
2013-03-18 01:55:00,66.4,60.7,29.47,WNW,291,0.0,2.0,82,0.00,,---,0.00,0.00,VWS V14.00,2013-03-18 06:55:00,
2013-03-18 02:00:00,66.2,60.9,29.46,WNW,291,1.0,5.0,83,0.00,,---,0.00,0.00,VWS V14.00,2013-03-18 07:00:00,
2013-03-18 02:05:00,66.0,60.7,29.46,WNW,289,2.0,8.0,83,0.00,,---,0.00,0.00,VWS V14.00,2013-03-18 07:05:00,
2013-03-18 02:10:00,65.7,60.7,29.46,WNW,289,2.0,8.0,84,0.00,,---,0.00,0.00,VWS V14.00,2013-03-18 07:10:00,
2013-03-18 02:15:00,65.6,60.6,29.46,WNW,289,5.0,7.0,84,0.00,,---,0.00,0.00,VWS V14.00,2013-03-18 07:15:00,
2013-03-18 02:20:00,65.6,61.0,29.46,WNW,289,0.0,7.0,85,0.00,,---,0.00,0.00,VWS V14.00,2013-03-18 07:20:00,
2013-03-18 02:25:00,65.5,60.9,29.46,WNW,289,2.0,6.0,85,0.00,,---,0.00,0.00,VWS V14.00,2013-03-18 07:25:00,
2013-03-18 02:30:00,65.4,60.8,29.46,WNW,289,1.0,6.0,85,0.00,,---,0.00,0.00,VWS V14.00,2013-03-18 07:30:00,
2013-03-18 02:35:00,65.2,60.6,29.45,WNW,289,1.0,4.0,85,0.00,,---,0.00,0.00,VWS V14.00,2013-03-18 07:35:00,
2013-03-18 02:40:00,65.2,60.9,29.45,WNW,289,1.0,4.0,86,0.00,,---,0.00,0.00,VWS V14.00,2013-03-18 07:40:00,
2013-03-18 02:45:00,65.2,60.9,29.45,WNW,289,0.0,5.0,86,0.00,,---,0.00,0.00,VWS V14.00,2013-03-18 07:45:00,
2013-03-18 02:50:00,65.3,61.0,29.45,WNW,289,2.0,7.0,86,0.00,,---,0.00,0.00,VWS V14.00,2013-03-18 07:50:00,
2013-03-18 02:55:00,65.4,61.1,29.45,WNW,289,7.0,9.0,86,0.00,,---,0.00,0.00,VWS V14.00,2013-03-18 07:55:00,
2013-03-18 03:00:00,65.9,61.6,29.45,WNW,283,4.0,9.0,86,0.00,,---,0.00,0.00,VWS V14.00,2013-03-18 08:00:00,
2013-03-18 03:05:00,66.2,61.6,29.45,WNW,283,6.0,9.0,85,0.00,,---,0.00,0.00,VWS V14.00,2013-03-18 08:05:00,
2013-03-18 03:10:00,66.6,61.6,29.45,WNW,282,2.0,12.0,84,0.00,,---,0.00,0.00,VWS V14.00,2013-03-18 08:10:00,
2013-03-18 03:15:00,66.8,61.8,29.45,West,281,6.0,9.0,84,0.00,,---,0.00,0.00,VWS V14.00,2013-03-18 08:15:00,
2013-03-18 03:20:00,66.9,61.6,29.44,West,272,6.0,12.0,83,0.00,,---,0.00,0.00,VWS V14.00,2013-03-18 08:20:00,
2013-03-18 03:25:00,67.0,61.7,29.45,WSW,256,3.0,11.0,83,0.00,,---,0.00,0.00,VWS V14.00,2013-03-18 08:25:00,
2013-03-18 03:30:00,67.0,61.7,29.45,WSW,256,5.0,11.0,83,0.00,,---,0.00,0.00,VWS V14.00,2013-03-18 08:30:00,
2013-03-18 03:35:00,66.9,61.6,29.45,WSW,256,0.0,8.0,83,0.00,,---,0.00,0.00,VWS V14.00,2013-03-18 08:35:00,
2013-03-18 03:40:00,66.8,61.8,29.45,WSW,253,6.0,11.0,84,0.00,,---,0.00,0.00,VWS V14.00,2013-03-18 08:40:00,
2013-03-18 03:45:00,66.7,61.7,29.45,WSW,253,0.0,6.0,84,0.00,,---,0.00,0.00,VWS V14.00,2013-03-18 08:45:00,
2013-03-18 03:50:00,66.5,61.9,29.45,WSW,253,6.0,10.0,85,0.00,,---,0.00,0.00,VWS V14.00,2013-03-18 08:50:00,
2013-03-18 03:55:00,66.5,61.9,29.45,WSW,253,6.0,13.0,85,0.00,,---,0.00,0.00,VWS V14.00,2013-03-18 08:55:00,
2013-03-18 04:00:00,66.5,61.9,29.45,WSW,253,4.0,13.0,85,0.00,,---,0.00,0.00,VWS V14.00,2013-03-18 09:00:00,
2013-03-18 04:05:00,66.3,61.7,29.45,WSW,253,4.0,6.0,85,0.00,,---,0.00,0.00,VWS V14.00,2013-03-18 09:05:00,
2013-03-18 04:10:00,66.2,61.6,29.46,WSW,253,1.0,11.0,85,0.00,,---,0.00,0.00,VWS V14.00,2013-03-18 09:10:00,
2013-03-18 04:15:00,66.1,61.5,29.46,WSW,253,8.0,10.0,85,0.00,,---,0.00,0.00,VWS V14.00,2013-03-18 09:15:00,
2013-03-18 04:20:00,65.9,61.6,29.46,WSW,253,4.0,11.0,86,0.00,,---,0.00,0.00,VWS V14.00,2013-03-18 09:20:00,
2013-03-18 04:25:00,65.8,61.5,29.47,WSW,253,3.0,6.0,86,0.00,,---,0.00,0.00,VWS V14.00,2013-03-18 09:25:00,
2013-03-18 04:30:00,65.6,61.3,29.46,WSW,253,1.0,8.0,86,0.00,,---,0.00,0.00,VWS V14.00,2013-03-18 09:30:00,
2013-03-18 04:35:00,65.3,61.3,29.46,WSW,253,1.0,10.0,87,0.00,,---,0.00,0.00,VWS V14.00,2013-03-18 09:35:00,
2013-03-18 04:40:00,65.0,61.0,29.47,WSW,253,0.0,10.0,87,0.00,,---,0.00,0.00,VWS V14.00,2013-03-18 09:40:00,
2013-03-18 04:45:00,64.8,60.8,29.46,WSW,253,0.0,3.0,87,0.00,,---,0.00,0.00,VWS V14.00,2013-03-18 09:45:00,
2013-03-18 04:50:00,64.6,61.0,29.47,WSW,253,0.0,4.0,88,0.00,,---,0.00,0.00,VWS V14.00,2013-03-18 09:50:00,
2013-03-18 04:55:00,64.5,60.9,29.47,WSW,253,4.0,5.0,88,0.00,,---,0.00,0.00,VWS V14.00,2013-03-18 09:55:00,
2013-03-18 05:00:00,64.5,60.9,29.47,WSW,253,1.0,5.0,88,0.00,,---,0.00,0.00,VWS V14.00,2013-03-18 10:00:00,
2013-03-18 05:05:00,64.7,61.1,29.46,WSW,253,6.0,7.0,88,0.00,,---,0.00,0.00,VWS V14.00,2013-03-18 10:05:00,
2013-03-18 05:10:00,64.7,61.1,29.46,WSW,253,1.0,8.0,88,0.00,,---,0.00,0.00,VWS V14.00,2013-03-18 10:10:00,
2013-03-18 05:15:00,64.9,60.9,29.46,WSW,253,0.0,6.0,87,0.00,,---,0.00,0.00,VWS V14.00,2013-03-18 10:15:00,
2013-03-18 05:20:00,65.1,61.1,29.46,WSW,253,6.0,8.0,87,0.00,,---,0.00,0.00,VWS V14.00,2013-03-18 10:20:00,
2013-03-18 05:25:00,65.4,61.1,29.46,WSW,253,4.0,8.0,86,0.00,,---,0.00,0.00,VWS V14.00,2013-03-18 10:25:00,
2013-03-18 05:30:00,65.3,60.7,29.46,WSW,253,4.0,8.0,85,0.00,,---,0.00,0.00,VWS V14.00,2013-03-18 10:30:00,
2013-03-18 05:35:00,65.3,60.7,29.46,WSW,253,6.0,7.0,85,0.00,,---,0.00,0.00,VWS V14.00,2013-03-18 10:35:00,
2013-03-18 05:40:00,65.3,60.7,29.47,WSW,253,6.0,8.0,85,0.00,,---,0.00,0.00,VWS V14.00,2013-03-18 10:40:00,
2013-03-18 05:45:00,65.2,60.6,29.46,WSW,253,4.0,7.0,85,0.00,,---,0.00,0.00,VWS V14.00,2013-03-18 10:45:00,
2013-03-18 05:50:00,65.2,60.6,29.46,WSW,253,2.0,7.0,85,0.00,,---,0.00,0.00,VWS V14.00,2013-03-18 10:50:00,
2013-03-18 05:55:00,65.2,60.2,29.46,WSW,253,4.0,7.0,84,0.00,,---,0.00,0.00,VWS V14.00,2013-03-18 10:55:00,
2013-03-18 06:00:00,65.3,60.3,29.46,WSW,253,0.0,8.0,84,0.00,,---,0.00,0.00,VWS V14.00,2013-03-18 11:00:00,
2013-03-18 06:05:00,65.4,60.5,29.46,WSW,253,1.0,6.0,84,0.00,,---,0.00,0.00,VWS V14.00,2013-03-18 11:05:00,
2013-03-18 06:10:00,65.5,60.2,29.46,WSW,253,0.0,6.0,83,0.00,,---,0.00,0.00,VWS V14.00,2013-03-18 11:10:00,
2013-03-18 06:15:00,65.6,60.0,29.47,WSW,253,2.0,7.0,82,0.00,,---,0.00,0.00,VWS V14.00,2013-03-18 11:15:00,
2013-03-18 06:20:00,65.7,59.7,29.47,WSW,253,7.0,7.0,81,0.00,,---,0.00,0.00,VWS V14.00,2013-03-18 11:20:00,
2013-03-18 06:25:00,65.9,59.9,29.47,WSW,253,0.0,7.0,81,0.00,,---,0.00,0.00,VWS V14.00,2013-03-18 11:25:00,
2013-03-18 06:30:00,66.0,59.7,29.47,WSW,253,3.0,7.0,80,0.00,,---,0.00,0.00,VWS V14.00,2013-03-18 11:30:00,
2013-03-18 06:35:00,65.9,59.6,29.47,WSW,253,3.0,11.0,80,0.00,,---,0.00,0.00,VWS V14.00,2013-03-18 11:35:00,
2013-03-18 06:40:00,65.9,59.6,29.48,WSW,253,5.0,11.0,80,0.00,,---,0.00,0.00,VWS V14.00,2013-03-18 11:40:00,
2013-03-18 06:45:00,65.8,59.5,29.48,WSW,253,4.0,7.0,80,0.00,,---,0.00,0.00,VWS V14.00,2013-03-18 11:45:00,
2013-03-18 06:50:00,65.8,59.5,29.48,WSW,253,6.0,10.0,80,0.00,,---,0.00,0.00,VWS V14.00,2013-03-18 11:50:00,
2013-03-18 06:55:00,65.6,59.3,29.48,WSW,253,1.0,7.0,80,0.00,,---,0.00,0.00,VWS V14.00,2013-03-18 11:55:00,
2013-03-18 07:00:00,65.5,59.2,29.48,WSW,253,0.0,7.0,80,0.00,,---,0.00,0.00,VWS V14.00,2013-03-18 12:00:00,
2013-03-18 07:05:00,65.4,59.1,29.49,WSW,253,1.0,6.0,80,0.00,,---,0.00,0.00,VWS V14.00,2013-03-18 12:05:00,
2013-03-18 07:10:00,65.3,59.0,29.49,WSW,253,3.0,6.0,80,0.00,,---,0.00,0.00,VWS V14.00,2013-03-18 12:10:00,
2013-03-18 07:15:00,65.0,58.7,29.49,WSW,253,2.0,5.0,80,0.00,,---,0.00,0.00,VWS V14.00,2013-03-18 12:15:00,
2013-03-18 07:20:00,64.9,58.6,29.49,WSW,253,1.0,5.0,80,0.00,,---,0.00,0.00,VWS V14.00,2013-03-18 12:20:00,
2013-03-18 07:25:00,64.7,58.7,29.50,WSW,253,4.0,5.0,81,0.00,,---,0.00,0.00,VWS V14.00,2013-03-18 12:25:00,
2013-03-18 07:30:00,64.8,58.1,29.50,WSW,253,3.0,6.0,79,0.00,,---,0.00,0.00,VWS V14.00,2013-03-18 12:30:00,
2013-03-18 07:35:00,64.9,57.9,29.50,WSW,253,0.0,4.0,78,0.00,,---,0.00,0.00,VWS V14.00,2013-03-18 12:35:00,
2013-03-18 07:40:00,64.9,57.9,29.50,WSW,253,2.0,4.0,78,0.00,,---,0.00,0.00,VWS V14.00,2013-03-18 12:40:00,
2013-03-18 07:45:00,64.9,57.5,29.50,WSW,253,2.0,4.0,77,0.00,,---,0.00,5.00,VWS V14.00,2013-03-18 12:45:00,
2013-03-18 07:50:00,65.1,57.0,29.50,WSW,253,3.0,6.0,75,0.00,,---,0.00,9.00,VWS V14.00,2013-03-18 12:50:00,
2013-03-18 07:55:00,65.2,56.7,29.51,WSW,253,3.0,4.0,74,0.00,,---,0.00,12.00,VWS V14.00,2013-03-18 12:55:00,
2013-03-18 08:00:00,65.3,56.4,29.51,WSW,253,2.0,5.0,73,0.00,,---,0.00,18.00,VWS V14.00,2013-03-18 13:00:00,
2013-03-18 08:05:00,65.3,56.4,29.51,WSW,253,2.0,5.0,73,0.00,,---,0.00,23.00,VWS V14.00,2013-03-18 13:05:00,
2013-03-18 08:10:00,65.2,56.0,29.51,WSW,253,1.0,7.0,72,0.00,,---,0.00,26.00,VWS V14.00,2013-03-18 13:10:00,
2013-03-18 08:15:00,65.0,55.8,29.51,WSW,253,1.0,4.0,72,0.00,,---,0.00,32.00,VWS V14.00,2013-03-18 13:15:00,
2013-03-18 08:20:00,65.1,55.5,29.52,WSW,253,4.0,4.0,71,0.00,,---,0.00,35.00,VWS V14.00,2013-03-18 13:20:00,
2013-03-18 08:25:00,65.4,55.4,29.52,WSW,253,3.0,4.0,70,0.00,,---,0.00,46.00,VWS V14.00,2013-03-18 13:25:00,
2013-03-18 08:30:00,65.6,55.2,29.52,WSW,253,1.0,4.0,69,0.00,,---,0.00,56.00,VWS V14.00,2013-03-18 13:30:00,
2013-03-18 08:35:00,65.7,54.9,29.53,WSW,253,2.0,3.0,68,0.00,,---,0.00,69.00,VWS V14.00,2013-03-18 13:35:00,
2013-03-18 08:40:00,66.0,54.7,29.53,WSW,253,1.0,5.0,67,0.00,,---,0.00,113.00,VWS V14.00,2013-03-18 13:40:00,
2013-03-18 08:45:00,66.4,54.3,29.53,WSW,253,2.0,4.0,65,0.00,,---,0.00,127.00,VWS V14.00,2013-03-18 13:45:00,
2013-03-18 08:50:00,66.8,54.2,29.54,WSW,253,3.0,5.0,64,0.00,,---,0.00,137.00,VWS V14.00,2013-03-18 13:50:00,
2013-03-18 08:55:00,67.4,53.9,29.53,WSW,253,2.0,3.0,62,0.00,,---,0.00,171.00,VWS V14.00,2013-03-18 13:55:00,
2013-03-18 09:00:00,68.0,53.6,29.54,WSW,253,1.0,5.0,60,0.00,,---,0.00,206.00,VWS V14.00,2013-03-18 14:00:00,
2013-03-18 09:05:00,68.6,53.7,29.54,WSW,253,0.0,4.0,59,0.00,,---,0.00,227.00,VWS V14.00,2013-03-18 14:05:00,
2013-03-18 09:10:00,69.3,53.0,29.54,WSW,253,2.0,4.0,56,0.00,,---,0.00,250.00,VWS V14.00,2013-03-18 14:10:00,
2013-03-18 09:15:00,70.1,52.7,29.55,WSW,253,4.0,5.0,54,0.00,,---,0.00,267.00,VWS V14.00,2013-03-18 14:15:00,
2013-03-18 09:20:00,70.9,51.3,29.55,WSW,253,4.0,5.0,50,0.00,,---,0.00,285.00,VWS V14.00,2013-03-18 14:20:00,
2013-03-18 09:25:00,71.6,50.3,29.55,WSW,253,3.0,6.0,47,0.00,,---,0.00,306.00,VWS V14.00,2013-03-18 14:25:00,
2013-03-18 09:30:00,72.1,50.8,29.56,WSW,253,3.0,7.0,47,0.00,,---,0.00,323.00,VWS V14.00,2013-03-18 14:30:00,
2013-03-18 09:35:00,72.8,49.0,29.56,WSW,253,5.0,10.0,43,0.00,,---,0.00,343.00,VWS V14.00,2013-03-18 14:35:00,
2013-03-18 09:40:00,73.6,46.5,29.56,WSW,253,4.0,10.0,38,0.00,,---,0.00,362.00,VWS V14.00,2013-03-18 14:40:00,
2013-03-18 09:45:00,74.4,45.0,29.56,WSW,253,2.0,11.0,35,0.00,,---,0.00,381.00,VWS V14.00,2013-03-18 14:45:00,
2013-03-18 09:50:00,75.1,40.7,29.56,West,264,14.0,15.0,29,0.00,,---,0.00,401.00,VWS V14.00,2013-03-18 14:50:00,
2013-03-18 09:55:00,75.5,38.2,29.57,WNW,285,13.0,16.0,26,0.00,,---,0.00,418.00,VWS V14.00,2013-03-18 14:55:00,
2013-03-18 10:00:00,75.7,39.4,29.57,West,279,6.0,18.0,27,0.00,,---,0.00,436.00,VWS V14.00,2013-03-18 15:00:00,
2013-03-18 10:05:00,75.9,38.6,29.58,WNW,290,14.0,16.0,26,0.00,,---,0.00,452.00,VWS V14.00,2013-03-18 15:05:00,
2013-03-18 10:10:00,76.0,36.6,29.58,WNW,287,9.0,19.0,24,0.00,,---,0.00,471.00,VWS V14.00,2013-03-18 15:10:00,
2013-03-18 10:15:00,76.2,34.6,29.57,WNW,285,9.0,19.0,22,0.00,,---,0.00,489.00,VWS V14.00,2013-03-18 15:15:00,
2013-03-18 10:20:00,76.3,34.7,29.58,WNW,298,12.0,19.0,22,0.00,,---,0.00,504.00,VWS V14.00,2013-03-18 15:20:00,
2013-03-18 10:25:00,76.4,34.8,29.59,WNW,301,8.0,17.0,22,0.00,,---,0.00,520.00,VWS V14.00,2013-03-18 15:25:00,
2013-03-18 10:30:00,76.8,34.0,29.59,WNW,300,11.0,17.0,21,0.00,,---,0.00,538.00,VWS V14.00,2013-03-18 15:30:00,
2013-03-18 10:35:00,76.5,33.7,29.59,WNW,283,9.0,19.0,21,0.00,,---,0.00,557.00,VWS V14.00,2013-03-18 15:35:00,
2013-03-18 10:40:00,76.2,34.6,29.59,WNW,298,8.0,19.0,22,0.00,,---,0.00,571.00,VWS V14.00,2013-03-18 15:40:00,
2013-03-18 10:45:00,76.2,35.7,29.59,WNW,296,14.0,15.0,23,0.00,,---,0.00,589.00,VWS V14.00,2013-03-18 15:45:00,
2013-03-18 10:50:00,76.0,36.6,29.60,WNW,292,9.0,20.0,24,0.00,,---,0.00,605.00,VWS V14.00,2013-03-18 15:50:00,
2013-03-18 10:55:00,76.2,36.8,29.60,WNW,292,9.0,14.0,24,0.00,,---,0.00,617.00,VWS V14.00,2013-03-18 15:55:00,
2013-03-18 11:00:00,76.8,38.3,29.60,WNW,295,2.0,14.0,25,0.00,,---,0.00,633.00,VWS V14.00,2013-03-18 16:00:00,
2013-03-18 11:05:00,76.9,37.4,29.60,West,275,8.0,22.0,24,0.00,,---,0.00,647.00,VWS V14.00,2013-03-18 16:05:00,
2013-03-18 11:10:00,76.9,36.3,29.60,WNW,283,11.0,22.0,23,0.00,,---,0.00,661.00,VWS V14.00,2013-03-18 16:10:00,
2013-03-18 11:14:00,77.3,34.4,29.60,WNW,292,13.0,15.0,21,0.00,,---,0.00,677.00,VWS V14.00,2013-03-18 16:14:00,
2013-03-18 11:19:00,77.1,34.2,29.60,WNW,295,12.0,19.0,21,0.00,,---,0.00,693.00,VWS V14.00,2013-03-18 16:19:00,
2013-03-18 11:24:00,77.4,35.6,29.60,WNW,296,7.0,11.0,22,0.00,,---,0.00,707.00,VWS V14.00,2013-03-18 16:24:00,
2013-03-18 11:29:00,78.0,34.9,29.61,WNW,294,12.0,14.0,21,0.00,,---,0.00,719.00,VWS V14.00,2013-03-18 16:29:00,
2013-03-18 11:34:00,77.9,34.9,29.60,NW,315,10.0,18.0,21,0.00,,---,0.00,731.00,VWS V14.00,2013-03-18 16:34:00,
2013-03-18 11:40:00,77.5,34.5,29.60,WNW,298,6.0,18.0,21,0.00,,---,0.00,747.00,VWS V14.00,2013-03-18 16:40:00,
2013-03-18 11:45:00,78.1,35.0,29.61,WNW,296,12.0,16.0,21,0.00,,---,0.00,756.00,VWS V14.00,2013-03-18 16:45:00,
2013-03-18 11:50:00,78.5,35.4,29.61,WNW,295,7.0,16.0,21,0.00,,---,0.00,766.00,VWS V14.00,2013-03-18 16:50:00,
2013-03-18 11:55:00,78.7,34.3,29.61,WNW,297,8.0,19.0,20,0.00,,---,0.00,780.00,VWS V14.00,2013-03-18 16:55:00,
2013-03-18 12:00:00,78.7,35.5,29.61,WNW,299,9.0,19.0,21,0.00,,---,0.00,788.00,VWS V14.00,2013-03-18 17:00:00,
2013-03-18 12:05:00,79.1,35.8,29.61,WNW,298,7.0,15.0,21,0.00,,---,0.00,800.00,VWS V14.00,2013-03-18 17:05:00,
2013-03-18 12:10:00,79.0,35.8,29.61,WNW,297,7.0,15.0,21,0.00,,---,0.00,807.00,VWS V14.00,2013-03-18 17:10:00,
2013-03-18 12:15:00,79.4,34.9,29.61,WNW,298,6.0,14.0,20,0.00,,---,0.00,817.00,VWS V14.00,2013-03-18 17:15:00,
2013-03-18 12:20:00,79.4,34.9,29.61,WNW,298,4.0,14.0,20,0.00,,---,0.00,826.00,VWS V14.00,2013-03-18 17:20:00,
2013-03-18 12:25:00,80.0,36.6,29.61,WNW,298,6.0,12.0,21,0.00,,---,0.00,833.00,VWS V14.00,2013-03-18 17:25:00,
2013-03-18 12:30:00,80.5,37.0,29.61,WNW,298,4.0,13.0,21,0.00,,---,0.00,844.00,VWS V14.00,2013-03-18 17:30:00,
2013-03-18 12:35:00,80.4,35.7,29.62,WNW,300,2.0,16.0,20,0.00,,---,0.00,851.00,VWS V14.00,2013-03-18 17:35:00,
2013-03-18 12:39:00,80.1,36.7,29.62,WNW,300,8.0,16.0,21,0.00,,---,0.00,860.00,VWS V14.00,2013-03-18 17:39:00,
2013-03-18 12:44:00,79.8,37.6,29.62,WNW,296,15.0,15.0,22,0.00,,---,0.00,865.00,VWS V14.00,2013-03-18 17:44:00,
2013-03-18 12:49:00,79.6,37.5,29.62,WNW,295,5.0,16.0,22,0.00,,---,0.00,870.00,VWS V14.00,2013-03-18 17:49:00,
2013-03-18 12:54:00,80.1,36.7,29.62,WNW,300,6.0,13.0,21,0.00,,---,0.00,879.00,VWS V14.00,2013-03-18 17:54:00,
2013-03-18 12:59:00,80.5,38.2,29.62,WNW,298,5.0,18.0,22,0.00,,---,0.00,882.00,VWS V14.00,2013-03-18 17:59:00,
2013-03-18 13:04:00,80.6,38.3,29.61,WNW,298,8.0,11.0,22,0.00,,---,0.00,891.00,VWS V14.00,2013-03-18 18:04:00,
2013-03-18 13:09:00,80.2,38.0,29.61,WNW,298,1.0,12.0,22,0.00,,---,0.00,893.00,VWS V14.00,2013-03-18 18:09:00,
2013-03-18 13:14:00,80.0,37.8,29.61,WNW,300,6.0,14.0,22,0.00,,---,0.00,896.00,VWS V14.00,2013-03-18 18:14:00,
2013-03-18 13:19:00,79.7,38.7,29.61,WNW,300,6.0,14.0,23,0.00,,---,0.00,898.00,VWS V14.00,2013-03-18 18:19:00,
2013-03-18 13:24:00,80.2,39.1,29.61,WNW,301,8.0,19.0,23,0.00,,---,0.00,902.00,VWS V14.00,2013-03-18 18:24:00,
2013-03-18 13:29:00,79.8,39.8,29.61,WNW,300,5.0,19.0,24,0.00,,---,0.00,904.00,VWS V14.00,2013-03-18 18:29:00,
2013-03-18 13:34:00,80.2,40.2,29.61,WNW,302,8.0,12.0,24,0.00,,---,0.00,909.00,VWS V14.00,2013-03-18 18:34:00,
2013-03-18 13:39:00,79.7,38.7,29.61,WNW,301,7.0,14.0,23,0.00,,---,0.00,909.00,VWS V14.00,2013-03-18 18:39:00,
2013-03-18 13:44:00,80.0,40.0,29.61,WNW,301,4.0,8.0,24,0.00,,---,0.00,911.00,VWS V14.00,2013-03-18 18:44:00,
2013-03-18 13:49:00,80.9,39.7,29.61,WNW,301,7.0,9.0,23,0.00,,---,0.00,911.00,VWS V14.00,2013-03-18 18:49:00,
2013-03-18 13:54:00,80.0,38.9,29.61,WNW,301,7.0,12.0,23,0.00,,---,0.00,909.00,VWS V14.00,2013-03-18 18:54:00,
2013-03-18 13:59:00,79.8,40.9,29.60,WNW,300,4.0,13.0,25,0.00,,---,0.00,907.00,VWS V14.00,2013-03-18 18:59:00,
2013-03-18 14:04:00,80.7,40.6,29.60,WNW,301,6.0,14.0,24,0.00,,---,0.00,911.00,VWS V14.00,2013-03-18 19:04:00,
2013-03-18 14:09:00,80.5,41.5,29.60,WNW,301,5.0,14.0,25,0.00,,---,0.00,907.00,VWS V14.00,2013-03-18 19:09:00,
2013-03-18 14:14:00,80.6,39.4,29.60,WNW,303,7.0,12.0,23,0.00,,---,0.00,902.00,VWS V14.00,2013-03-18 19:14:00,
2013-03-18 14:19:00,80.2,41.2,29.59,WNW,303,7.0,12.0,25,0.00,,---,0.00,900.00,VWS V14.00,2013-03-18 19:19:00,
2013-03-18 14:24:00,80.5,40.4,29.59,WNW,299,7.0,16.0,24,0.00,,---,0.00,900.00,VWS V14.00,2013-03-18 19:24:00,
2013-03-18 14:29:00,80.4,42.4,29.58,WNW,298,8.0,16.0,26,0.00,,---,0.00,895.00,VWS V14.00,2013-03-18 19:29:00,
2013-03-18 14:34:00,81.2,42.1,29.58,WNW,302,6.0,16.0,25,0.00,,---,0.00,902.00,VWS V14.00,2013-03-18 19:34:00,
2013-03-18 14:39:00,81.0,41.9,29.58,WNW,300,8.0,16.0,25,0.00,,---,0.00,907.00,VWS V14.00,2013-03-18 19:39:00,
2013-03-18 14:44:00,80.9,41.8,29.59,WNW,301,8.0,12.0,25,0.00,,---,0.00,907.00,VWS V14.00,2013-03-18 19:44:00,
2013-03-18 14:49:00,81.0,42.9,29.58,WNW,299,7.0,12.0,26,0.00,,---,0.00,865.00,VWS V14.00,2013-03-18 19:49:00,
2013-03-18 14:54:00,81.6,43.4,29.58,WNW,301,6.0,13.0,26,0.00,,---,0.00,846.00,VWS V14.00,2013-03-18 19:54:00,
2013-03-18 14:59:00,81.4,42.2,29.58,WNW,298,9.0,15.0,25,0.00,,---,0.00,652.00,VWS V14.00,2013-03-18 19:59:00,
2013-03-18 15:04:00,80.9,41.8,29.58,WNW,298,8.0,11.0,25,0.00,,---,0.00,807.00,VWS V14.00,2013-03-18 20:04:00,
2013-03-18 15:09:00,80.3,42.3,29.58,WNW,298,8.0,11.0,26,0.00,,---,0.00,329.00,VWS V14.00,2013-03-18 20:09:00,
2013-03-18 15:14:00,81.7,42.5,29.58,WNW,298,6.0,9.0,25,0.00,,---,0.00,904.00,VWS V14.00,2013-03-18 20:14:00,
2013-03-18 15:19:00,82.0,40.6,29.58,WNW,298,8.0,13.0,23,0.00,,---,0.00,861.00,VWS V14.00,2013-03-18 20:19:00,
2013-03-18 15:24:00,81.2,42.1,29.57,WNW,301,7.0,12.0,25,0.00,,---,0.00,810.00,VWS V14.00,2013-03-18 20:24:00,
2013-03-18 15:29:00,81.8,43.6,29.57,WNW,302,7.0,12.0,26,0.00,,---,0.00,840.00,VWS V14.00,2013-03-18 20:29:00,
2013-03-18 15:34:00,81.7,41.4,29.57,WNW,295,15.0,18.0,24,0.00,,---,0.00,831.00,VWS V14.00,2013-03-18 20:34:00,
2013-03-18 15:39:00,81.5,40.2,29.57,WNW,298,6.0,18.0,23,0.00,,---,0.00,831.00,VWS V14.00,2013-03-18 20:39:00,
2013-03-18 15:44:00,81.4,41.2,29.57,WNW,298,8.0,13.0,24,0.00,,---,0.00,396.00,VWS V14.00,2013-03-18 20:44:00,
2013-03-18 15:49:00,80.5,41.5,29.58,WNW,298,8.0,13.0,25,0.00,,---,0.00,587.00,VWS V14.00,2013-03-18 20:49:00,
2013-03-18 15:54:00,81.3,42.2,29.58,WNW,298,4.0,11.0,25,0.00,,---,0.00,854.00,VWS V14.00,2013-03-18 20:54:00,
2013-03-18 15:59:00,81.8,41.5,29.58,WNW,298,9.0,12.0,24,0.00,,---,0.00,807.00,VWS V14.00,2013-03-18 20:59:00,
2013-03-18 16:04:00,81.8,41.5,29.58,WNW,298,5.0,9.0,24,0.00,,---,0.00,554.00,VWS V14.00,2013-03-18 21:04:00,
2013-03-18 16:09:00,81.8,41.5,29.58,NW,306,9.0,16.0,24,0.00,,---,0.00,865.00,VWS V14.00,2013-03-18 21:09:00,
2013-03-18 16:14:00,81.5,41.3,29.58,NW,304,7.0,13.0,24,0.00,,---,0.00,454.00,VWS V14.00,2013-03-18 21:14:00,
2013-03-18 16:19:00,81.0,41.9,29.58,NW,304,5.0,13.0,25,0.00,,---,0.00,754.00,VWS V14.00,2013-03-18 21:19:00,
2013-03-18 16:24:00,82.1,42.8,29.58,NW,305,9.0,11.0,25,0.00,,---,0.00,691.00,VWS V14.00,2013-03-18 21:24:00,
2013-03-18 16:29:00,82.1,40.7,29.58,NW,304,5.0,12.0,23,0.00,,---,0.00,366.00,VWS V14.00,2013-03-18 21:29:00,
2013-03-18 16:34:00,80.7,40.6,29.59,WNW,302,2.0,11.0,24,0.00,,---,0.00,243.00,VWS V14.00,2013-03-18 21:34:00,
2013-03-18 16:39:00,79.8,40.9,29.58,WNW,303,6.0,11.0,25,0.00,,---,0.00,353.00,VWS V14.00,2013-03-18 21:39:00,
2013-03-18 16:44:00,80.1,40.1,29.59,WNW,302,6.0,9.0,24,0.00,,---,0.00,582.00,VWS V14.00,2013-03-18 21:44:00,
2013-03-18 16:49:00,80.7,40.6,29.60,WNW,302,4.0,9.0,24,0.00,,---,0.00,415.00,VWS V14.00,2013-03-18 21:49:00,
2013-03-18 16:54:00,80.8,41.7,29.60,WNW,303,5.0,11.0,25,0.00,,---,0.00,415.00,VWS V14.00,2013-03-18 21:54:00,
2013-03-18 16:59:00,80.3,40.3,29.60,WNW,303,4.0,11.0,24,0.00,,---,0.00,323.00,VWS V14.00,2013-03-18 21:59:00,
2013-03-18 17:04:00,79.7,39.8,29.60,WNW,302,4.0,11.0,24,0.00,,---,0.00,376.00,VWS V14.00,2013-03-18 22:04:00,
2013-03-18 17:09:00,79.5,41.7,29.60,WNW,301,4.0,11.0,26,0.00,,---,0.00,425.00,VWS V14.00,2013-03-18 22:09:00,
2013-03-18 17:14:00,80.3,42.3,29.60,WNW,302,5.0,8.0,26,0.00,,---,0.00,417.00,VWS V14.00,2013-03-18 22:14:00,
2013-03-18 17:19:00,80.0,40.0,29.60,WNW,303,6.0,11.0,24,0.00,,---,0.00,214.00,VWS V14.00,2013-03-18 22:19:00,
2013-03-18 17:24:00,79.1,41.3,29.61,WNW,302,5.0,9.0,26,0.00,,---,0.00,211.00,VWS V14.00,2013-03-18 22:24:00,
2013-03-18 17:29:00,78.8,41.0,29.61,WNW,302,1.0,9.0,26,0.00,,---,0.00,329.00,VWS V14.00,2013-03-18 22:29:00,
2013-03-18 17:34:00,79.4,41.6,29.61,WNW,302,6.0,7.0,26,0.00,,---,0.00,304.00,VWS V14.00,2013-03-18 22:34:00,
2013-03-18 17:39:00,79.3,41.5,29.61,WNW,303,4.0,11.0,26,0.00,,---,0.00,345.00,VWS V14.00,2013-03-18 22:39:00,
2013-03-18 17:44:00,79.0,41.2,29.62,WNW,302,5.0,9.0,26,0.00,,---,0.00,394.00,VWS V14.00,2013-03-18 22:44:00,
2013-03-18 17:49:00,79.3,40.5,29.62,WNW,303,2.0,9.0,25,0.00,,---,0.00,276.00,VWS V14.00,2013-03-18 22:49:00,
2013-03-18 17:54:00,79.6,42.7,29.62,WNW,302,4.0,9.0,27,0.00,,---,0.00,492.00,VWS V14.00,2013-03-18 22:54:00,
2013-03-18 17:59:00,79.4,42.5,29.62,WNW,302,6.0,9.0,27,0.00,,---,0.00,236.00,VWS V14.00,2013-03-18 22:59:00,
2013-03-18 18:04:00,78.9,43.1,29.63,WNW,302,6.0,8.0,28,0.00,,---,0.00,148.00,VWS V14.00,2013-03-18 23:04:00,
2013-03-18 18:09:00,77.6,42.9,29.63,WNW,302,4.0,8.0,29,0.00,,---,0.00,132.00,VWS V14.00,2013-03-18 23:09:00,
2013-03-18 18:14:00,76.9,43.1,29.63,WNW,302,5.0,8.0,30,0.00,,---,0.00,158.00,VWS V14.00,2013-03-18 23:14:00,
2013-03-18 18:19:00,76.5,43.7,29.63,WNW,302,4.0,9.0,31,0.00,,---,0.00,190.00,VWS V14.00,2013-03-18 23:19:00,
2013-03-18 18:24:00,76.5,43.7,29.64,WNW,302,2.0,11.0,31,0.00,,---,0.00,151.00,VWS V14.00,2013-03-18 23:24:00,
2013-03-18 18:29:00,76.2,43.4,29.64,WNW,302,2.0,11.0,31,0.00,,---,0.00,174.00,VWS V14.00,2013-03-18 23:29:00,
2013-03-18 18:34:00,76.3,43.5,29.64,WNW,302,6.0,9.0,31,0.00,,---,0.00,171.00,VWS V14.00,2013-03-18 23:34:00,
2013-03-18 18:39:00,76.3,44.3,29.65,WNW,302,8.0,11.0,32,0.00,,---,0.00,274.00,VWS V14.00,2013-03-18 23:39:00,
2013-03-18 18:44:00,76.5,43.7,29.65,WNW,302,2.0,8.0,31,0.00,,---,0.00,241.00,VWS V14.00,2013-03-18 23:44:00,
2013-03-18 18:49:00,76.5,43.7,29.65,WNW,302,4.0,11.0,31,0.00,,---,0.00,134.00,VWS V14.00,2013-03-18 23:49:00,
2013-03-18 18:54:00,75.8,43.9,29.65,WNW,302,1.0,7.0,32,0.00,,---,0.00,91.00,VWS V14.00,2013-03-18 23:54:00,
2013-03-18 18:59:00,75.2,43.3,29.66,WNW,302,6.0,7.0,32,0.00,,---,0.00,67.00,VWS V14.00,2013-03-18 23:59:00,
2013-03-18 19:04:00,74.6,42.8,29.66,WNW,302,0.0,11.0,32,0.00,,---,0.00,62.00,VWS V14.00,2013-03-19 00:04:00,
2013-03-18 19:09:00,74.2,42.5,29.66,WNW,302,4.0,11.0,32,0.00,,---,0.00,51.00,VWS V14.00,2013-03-19 00:09:00,
2013-03-18 19:14:00,73.8,42.9,29.66,WNW,302,1.0,4.0,33,0.00,,---,0.00,62.00,VWS V14.00,2013-03-19 00:14:00,
2013-03-18 19:19:00,73.6,42.8,29.66,WNW,302,4.0,7.0,33,0.00,,---,0.00,53.00,VWS V14.00,2013-03-19 00:19:00,
2013-03-18 19:24:00,73.4,42.6,29.66,WNW,302,2.0,5.0,33,0.00,,---,0.00,30.00,VWS V14.00,2013-03-19 00:24:00,
2013-03-18 19:29:00,73.0,43.0,29.66,WNW,302,2.0,6.0,34,0.00,,---,0.00,14.00,VWS V14.00,2013-03-19 00:29:00,
2013-03-18 19:34:00,72.5,42.6,29.67,WNW,302,0.0,2.0,34,0.00,,---,0.00,12.00,VWS V14.00,2013-03-19 00:34:00,
2013-03-18 19:39:00,72.0,42.9,29.67,WNW,302,4.0,4.0,35,0.00,,---,0.00,9.00,VWS V14.00,2013-03-19 00:39:00,
2013-03-18 19:44:00,71.6,43.3,29.67,WNW,302,2.0,4.0,36,0.00,,---,0.00,5.00,VWS V14.00,2013-03-19 00:44:00,
2013-03-18 19:49:00,71.1,42.8,29.67,WNW,302,0.0,5.0,36,0.00,,---,0.00,0.00,VWS V14.00,2013-03-19 00:49:00,
2013-03-18 19:54:00,70.7,43.2,29.67,WNW,302,0.0,2.0,37,0.00,,---,0.00,0.00,VWS V14.00,2013-03-19 00:54:00,
2013-03-18 19:59:00,70.2,42.7,29.67,WNW,302,1.0,4.0,37,0.00,,---,0.00,0.00,VWS V14.00,2013-03-19 00:59:00,
2013-03-18 20:04:00,69.5,42.8,29.67,WNW,302,0.0,0.0,38,0.00,,---,0.00,0.00,VWS V14.00,2013-03-19 01:04:00,
2013-03-18 20:09:00,69.1,43.1,29.67,WNW,302,0.0,1.0,39,0.00,,---,0.00,0.00,VWS V14.00,2013-03-19 01:09:00,
2013-03-18 20:14:00,68.9,43.6,29.67,WNW,302,0.0,0.0,40,0.00,,---,0.00,0.00,VWS V14.00,2013-03-19 01:14:00,
2013-03-18 20:19:00,68.1,42.9,29.68,WNW,302,0.0,0.0,40,0.00,,---,0.00,0.00,VWS V14.00,2013-03-19 01:19:00,
2013-03-18 20:24:00,67.7,43.2,29.68,WNW,302,0.0,1.0,41,0.00,,---,0.00,0.00,VWS V14.00,2013-03-19 01:24:00,
2013-03-18 20:29:00,67.2,43.4,29.68,WNW,302,2.0,4.0,42,0.00,,---,0.00,0.00,VWS V14.00,2013-03-19 01:29:00,
2013-03-18 20:34:00,66.7,43.5,29.68,WNW,302,0.0,0.0,43,0.00,,---,0.00,0.00,VWS V14.00,2013-03-19 01:34:00,
2013-03-18 20:39:00,66.2,43.7,29.68,WNW,302,0.0,0.0,44,0.00,,---,0.00,0.00,VWS V14.00,2013-03-19 01:39:00,
2013-03-18 20:44:00,66.1,44.2,29.68,WNW,302,0.0,0.0,45,0.00,,---,0.00,0.00,VWS V14.00,2013-03-19 01:44:00,
2013-03-18 20:49:00,66.2,44.2,29.68,WNW,302,0.0,0.0,45,0.00,,---,0.00,0.00,VWS V14.00,2013-03-19 01:49:00,
2013-03-18 20:54:00,66.2,44.2,29.69,WNW,302,0.0,0.0,45,0.00,,---,0.00,0.00,VWS V14.00,2013-03-19 01:54:00,
2013-03-18 20:59:00,65.9,44.6,29.68,WNW,302,0.0,0.0,46,0.00,,---,0.00,0.00,VWS V14.00,2013-03-19 01:59:00,
2013-03-18 21:04:00,65.7,44.4,29.68,WNW,302,0.0,1.0,46,0.00,,---,0.00,0.00,VWS V14.00,2013-03-19 02:04:00,
2013-03-18 21:09:00,65.9,44.6,29.68,WNW,302,5.0,5.0,46,0.00,,---,0.00,0.00,VWS V14.00,2013-03-19 02:09:00,
2013-03-18 21:14:00,66.1,44.2,29.68,WNW,302,1.0,2.0,45,0.00,,---,0.00,0.00,VWS V14.00,2013-03-19 02:14:00,
2013-03-18 21:19:00,66.0,44.7,29.68,WNW,302,2.0,4.0,46,0.00,,---,0.00,0.00,VWS V14.00,2013-03-19 02:19:00,
2013-03-18 21:24:00,65.9,44.6,29.67,WNW,302,0.0,4.0,46,0.00,,---,0.00,0.00,VWS V14.00,2013-03-19 02:24:00,
2013-03-18 21:29:00,66.1,44.7,29.68,WNW,302,0.0,4.0,46,0.00,,---,0.00,0.00,VWS V14.00,2013-03-19 02:29:00,
2013-03-18 21:34:00,65.8,45.0,29.68,WNW,302,1.0,2.0,47,0.00,,---,0.00,0.00,VWS V14.00,2013-03-19 02:34:00,
2013-03-18 21:39:00,65.5,44.8,29.69,WNW,302,0.0,5.0,47,0.00,,---,0.00,0.00,VWS V14.00,2013-03-19 02:39:00,
2013-03-18 21:44:00,65.3,45.1,29.68,WNW,302,2.0,4.0,48,0.00,,---,0.00,0.00,VWS V14.00,2013-03-19 02:44:00,
2013-03-18 21:49:00,65.0,44.8,29.68,WNW,302,0.0,5.0,48,0.00,,---,0.00,0.00,VWS V14.00,2013-03-19 02:49:00,
2013-03-18 21:54:00,64.8,45.2,29.69,WNW,302,2.0,6.0,49,0.00,,---,0.00,0.00,VWS V14.00,2013-03-19 02:54:00,
2013-03-18 21:59:00,64.6,45.0,29.69,WNW,302,4.0,6.0,49,0.00,,---,0.00,0.00,VWS V14.00,2013-03-19 02:59:00,
2013-03-18 22:04:00,64.5,44.9,29.70,WNW,302,5.0,9.0,49,0.00,,---,0.00,0.00,VWS V14.00,2013-03-19 03:04:00,
2013-03-18 22:09:00,64.3,45.3,29.70,WNW,302,4.0,9.0,50,0.00,,---,0.00,0.00,VWS V14.00,2013-03-19 03:09:00,
2013-03-18 22:14:00,63.6,45.2,29.70,WNW,302,5.0,9.0,51,0.00,,---,0.00,0.00,VWS V14.00,2013-03-19 03:14:00,
2013-03-18 22:19:00,63.9,44.9,29.70,WNW,302,6.0,9.0,50,0.00,,---,0.00,0.00,VWS V14.00,2013-03-19 03:19:00,
2013-03-18 22:24:00,64.2,45.2,29.71,WNW,302,6.0,7.0,50,0.00,,---,0.00,0.00,VWS V14.00,2013-03-19 03:24:00,
2013-03-18 22:29:00,64.3,45.3,29.71,WNW,302,7.0,9.0,50,0.00,,---,0.00,0.00,VWS V14.00,2013-03-19 03:29:00,
2013-03-18 22:34:00,64.1,45.1,29.71,WNW,302,8.0,9.0,50,0.00,,---,0.00,0.00,VWS V14.00,2013-03-19 03:34:00,
2013-03-18 22:39:00,63.9,44.9,29.71,WNW,302,6.0,9.0,50,0.00,,---,0.00,0.00,VWS V14.00,2013-03-19 03:39:00,
2013-03-18 22:44:00,63.9,44.9,29.71,WNW,302,6.0,9.0,50,0.00,,---,0.00,0.00,VWS V14.00,2013-03-19 03:44:00,
2013-03-18 22:49:00,63.8,45.3,29.71,WNW,302,4.0,9.0,51,0.00,,---,0.00,0.00,VWS V14.00,2013-03-19 03:49:00,
2013-03-18 22:54:00,63.6,45.2,29.71,WNW,302,8.0,11.0,51,0.00,,---,0.00,0.00,VWS V14.00,2013-03-19 03:54:00,
2013-03-18 22:59:00,63.5,45.1,29.70,WNW,302,9.0,13.0,51,0.00,,---,0.00,0.00,VWS V14.00,2013-03-19 03:59:00,
2013-03-18 23:00:00,63.5,45.1,29.70,WNW,302,6.0,13.0,51,0.00,,---,0.00,0.00,VWS V14.00,2013-03-19 04:00:00,
2013-03-18 23:05:00,63.4,45.0,29.70,WNW,302,7.0,9.0,51,0.00,,---,0.00,0.00,VWS V14.00,2013-03-19 04:05:00,
2013-03-18 23:10:00,63.1,45.2,29.71,WNW,303,7.0,12.0,52,0.00,,---,0.00,0.00,VWS V14.00,2013-03-19 04:10:00,
2013-03-18 23:15:00,62.8,45.4,29.71,NW,307,9.0,12.0,53,0.00,,---,0.00,0.00,VWS V14.00,2013-03-19 04:15:00,
2013-03-18 23:20:00,62.4,45.1,29.71,NW,306,6.0,12.0,53,0.00,,---,0.00,0.00,VWS V14.00,2013-03-19 04:20:00,
2013-03-18 23:25:00,62.2,45.4,29.71,NW,304,9.0,11.0,54,0.00,,---,0.00,0.00,VWS V14.00,2013-03-19 04:25:00,
2013-03-18 23:30:00,62.2,45.4,29.72,WNW,303,7.0,12.0,54,0.00,,---,0.00,0.00,VWS V14.00,2013-03-19 04:30:00,
2013-03-18 23:35:00,62.1,45.3,29.72,WNW,302,9.0,13.0,54,0.00,,---,0.00,0.00,VWS V14.00,2013-03-19 04:35:00,
2013-03-18 23:40:00,62.0,45.7,29.71,WNW,300,8.0,13.0,55,0.00,,---,0.00,0.00,VWS V14.00,2013-03-19 04:40:00,
2013-03-18 23:45:00,61.8,45.0,29.72,WNW,300,6.0,12.0,54,0.00,,---,0.00,0.00,VWS V14.00,2013-03-19 04:45:00,
2013-03-18 23:50:00,61.6,45.3,29.72,WNW,300,7.0,12.0,55,0.00,,---,0.00,0.00,VWS V14.00,2013-03-19 04:50:00,
2013-03-18 23:55:00,61.3,45.5,29.72,WNW,300,7.0,12.0,56,0.00,,---,0.00,0.00,VWS V14.00,2013-03-19 04:55:00,